Location: Melizzano
(41.1500°N, 14.5000°E)
Time: 22:15:39
(UTC+00:00)

Cosmos 1125 Rocket - Pass Details

Date: 11 May 2021
Orbit: 758 x 779 km, 74.0° (Epoch: 24 June)

Event Time Altitude Azimuth Distance (km) Brightness Sun altitude
Exits shadow 23:26:52 51° 331° (NNW) 954 4.1 -30.3°
Drops below altitude 10° 23:31:11 10° 12° (NNE) 2,301 6.9 -30.2°
Sets 23:33:36 0° 16° (NNE) 3,228 7.9 -30.2°
